[Date Prev][Date Next][Thread Prev][Thread Next] - [Date Index][Thread Index][Author Index]
2 line ISS Keps 6-21
- Subject: [sarex] 2 line ISS Keps 6-21
- From: "Dave Larsen PhD" <david@xxxxxxxxxxx>
- Date: Thu, 21 Jun 2001 03:04:13 -0700
ISS
1 25544U 98067A 01172.14846569 .00046042 00000-0 50686-3 0 1169
2 25544 51.5715 68.6551 0016883 186.4473 328.1006 15.62493694147692
----
Via the sarex mailing list at AMSAT.ORG courtesy of AMSAT-NA.
To unsubscribe, send "unsubscribe sarex" to Majordomo@amsat.org
AMSAT Home